Back to catalog

THOR ABLESTAR DEB

AliveLEO
NORAD 130·DEBRIS·🇺🇸 United States

Launched Jun 29, 1961 from Cape Canaveral Space Force Station

Loading…

Next Passes (next 24 hours)

TLE

FreshSource: Space-Track

Epoch: Sep 14, 2026, 08:46 UTC

1 00130U 61015Q   26257.36584361  .00000021  00000-0  66243-4 0  9993
2 00130  66.7723  30.5620 0090830 230.0346 129.2735 13.99444122323939

Track THOR ABLESTAR DEB in real time with AllMySat

Download on the App Store